Location: Winthrop
(48.4780°N, 120.1850°W)
Time: 10:59:03
(UTC-08:00)

Tiros 1 - All Passes

Search period start: 07 February 2023 00:00
Search period end: 17 February 2023 00:00
Orbit: 629 x 662 km, 48.4° (Epoch: 07 February)

Date Brightness Start Highest point End Pass type
(mag) Time Alt. Az. Time Alt. Az. Time Alt. Az.
07 Feb - 00:42:31 10° WSW 00:47:08 80° SSE 00:51:48 10° E night (unlit)
07 Feb - 02:24:40 10° W 02:29:19 85° S 02:34:01 10° E night (unlit)
07 Feb - 04:06:53 10° W 04:11:15 41° SSW 04:15:40 10° SE visible
07 Feb - 05:50:54 10° WSW 05:52:32 12° SW 05:54:09 10° SSW visible
07 Feb - 21:45:51 10° S 21:49:00 18° SE 21:52:10 10° E night (unlit)
07 Feb - 23:25:59 10° SW 23:30:29 56° SSE 23:35:02 10° E night (unlit)
08 Feb - 01:07:55 10° W 01:12:33 90° NNW 01:17:14 10° E night (unlit)
08 Feb - 02:50:05 10° W 02:54:42 66° SSW 02:59:20 10° ESE night (unlit)
08 Feb - 04:32:35 10° W 04:36:21 24° SW 04:40:08 10° SSE visible
08 Feb - 22:09:54 10° SSW 22:14:00 33° SSE 22:18:08 10° E night (unlit)
08 Feb - 23:51:12 10° WSW 23:55:49 78° SSE 00:00:27 10° E night (unlit)
09 Feb - 01:33:20 10° W 01:37:59 86° S 01:42:39 10° E night (unlit)
09 Feb - 03:15:32 10° W 03:19:57 44° SSW 03:24:23 10° SE visible
09 Feb - 04:59:11 10° WSW 05:01:16 13° SW 05:03:21 10° SSW visible
09 Feb - 20:54:47 10° S 20:57:44 17° SE 21:00:41 10° E night (unlit)
09 Feb - 22:34:42 10° SW 22:39:10 53° SSE 22:43:41 10° E night (unlit)
10 Feb - 00:16:35 10° W 00:21:13 90° SW 00:25:52 10° E night (unlit)
10 Feb - 01:58:45 10° W 02:03:22 69° SSW 02:08:00 10° ESE night (unlit)
10 Feb - 03:41:12 10° W 03:45:03 26° SW 03:48:56 10° SSE night (unlit)
10 Feb - 21:18:41 10° SSW 21:22:42 30° SSE 21:26:45 10° E night (unlit)
10 Feb - 22:59:53 10° WSW 23:04:29 75° SSE 23:09:06 10° E night (unlit)
11 Feb - 00:42:01 10° W 00:46:38 88° S 00:51:18 10° E night (unlit)
11 Feb - 02:24:11 10° W 02:28:38 47° SSW 02:33:06 10° SE night (unlit)
11 Feb - 04:07:34 10° WSW 04:10:00 14° SW 04:12:25 10° SSW night (unlit)
11 Feb - 20:03:46 10° S 20:06:28 15° SE 20:09:09 10° ESE visible
11 Feb - 21:43:24 10° SW 21:47:51 50° SSE 21:52:19 10° E night (unlit)
11 Feb - 23:25:15 10° W 23:29:52 89° S 23:34:31 10° E night (unlit)
12 Feb - 01:07:25 10° W 01:12:01 72° SSW 01:16:39 10° ESE night (unlit)
12 Feb - 02:49:48 10° W 02:53:45 28° SW 02:57:44 10° SSE night (unlit)
12 Feb - 20:27:28 10° SSW 20:31:24 28° SE 20:35:21 10° E visible
12 Feb - 22:08:33 10° WSW 22:13:08 73° SSE 22:17:45 10° E night (unlit)
12 Feb - 23:50:39 10° W 23:55:18 89° S 23:59:57 10° E night (unlit)
13 Feb - 01:32:50 10° W 01:37:18 49° SSW 01:41:47 10° SE night (unlit)
13 Feb - 03:16:00 10° WSW 03:18:42 15° SW 03:21:25 10° S night (unlit)
13 Feb - 19:12:46 10° SSE 19:15:11 14° SE 19:17:35 10° ESE visible
13 Feb - 20:52:06 10° SW 20:56:32 47° SSE 21:00:57 10° E visible
13 Feb - 22:33:53 10° W 22:38:31 88° S 22:43:09 10° E night (unlit)
14 Feb - 00:16:04 10° W 00:20:41 75° SSW 00:25:18 10° ESE night (unlit)
14 Feb - 01:58:24 10° W 02:02:26 30° SSW 02:06:29 10° SSE night (unlit)
14 Feb - 19:36:16 10° SSW 19:40:06 26° SE 19:43:56 10° E visible
14 Feb - 21:17:12 10° WSW 21:21:47 70° SSE 21:26:23 10° E visible
14 Feb - 22:59:18 10° W 23:03:56 90° SSE 23:08:34 10° E night (unlit)
15 Feb - 00:41:29 10° W 00:45:58 52° SSW 00:50:29 10° SE night (unlit)
15 Feb - 02:24:28 10° W 02:27:25 17° SW 02:30:21 10° S night (unlit)
15 Feb - 18:21:50 10° SSE 18:23:53 13° SE 18:25:56 10° ESE visible
15 Feb - 20:00:49 10° SW 20:05:12 44° SSE 20:09:35 10° E visible
15 Feb - 21:42:31 10° W 21:47:09 87° S 21:51:47 10° E visible
15 Feb - 23:24:42 10° W 23:29:19 77° SSW 23:33:57 10° ESE night (unlit)
16 Feb - 01:07:00 10° W 01:11:07 32° SSW 01:15:14 10° SSE night (unlit)
16 Feb - 18:45:04 10° SSW 18:48:47 24° SE 18:52:30 10° E visible
16 Feb - 20:25:51 10° WSW 20:30:26 67° SSE 20:35:01 10° E visible
16 Feb - 22:07:56 10° W 22:12:33 90° NNW 22:17:12 10° E night (unlit)
16 Feb - 23:50:06 10° W 23:54:37 55° SSW 23:59:09 10° SE night (unlit)
